Weather History for Imperial, NE

Change the Weather History Date:

Saturday, December 11, 2010

  Actual Average Record
Temperature  
Mean Temperature 25 °F 29 °F  
Max Temperature 37 °F 41 °F 69 °F (1939)
Min Temperature 13 °F 16 °F -16 °F (1932)
Degree Days  
Heating Degree Days 40 36  
Month to date heating degree days 322 387  
Cooling Degree Days 0 0  
Month to date cooling degree days 0 0  
Year to date cooling degree days 1172 963  
Moisture  
Dew Point 13 °F    
Average Humidity 63    
Maximum Humidity 80    
Minimum Humidity 46    
Precipitation  
Precipitation 0.00 in 0.02 in 0.50 in (1901)
Sea Level Pressure  
Sea Level Pressure 30.23 in    
Wind  
Wind Speed 19 mph (NNW)    
Max Wind Speed 35 mph    
Max Gust Speed 44 mph    
Visibility 10 miles    
Events      
T = Trace of Precipitation, MM = Missing Value Source: NWS Daily Summary

Daily Weather History Graph

Daily Weather History Graph

Search for Another Location

Airport:

Trip Planner

Search our weather history database for the weather conditions in past years. The results will help you decide how hot, cold, wet, or windy it might be!

Date:

Astronomy

Dec. 11, 2010 Rise Set
Actual Time 6:59 AM MST 4:19 PM MST
Civil Twilight 6:29 AM MST 4:50 PM MST
Nautical Twilight 5:54 AM MST 5:24 PM MST
Astronomical Twilight 5:21 AM MST 5:57 PM MST
Moon 10:52 AM MST (12/11) 10:26 PM MST (12/11)
Length of Visible Light 10h 21m
Length of Day
9h 19m
Waxing Crescent, 33% of the Moon is Illuminated
Dec 11
Waxing Crescent
Dec 13
First Quarter
Dec 21
Full
Dec 27
Last Quarter
Jan 4
New

Hourly Weather History & Observations

Time (MST) Temp. Windchill Dew Point Humidity Pressure Visibility Wind Dir Wind Speed Gust Speed Precip Events Conditions
12:53 AM 35.1 °F 22.7 °F 23.0 °F 61% 29.90 in 10.0 mi NW 25.3 mph 33.4 mph N/A   Clear
1:53 AM 33.1 °F 21.9 °F 21.9 °F 64% 29.94 in 10.0 mi NW 18.4 mph 34.5 mph N/A   Clear
2:53 AM 30.9 °F 17.5 °F 19.9 °F 64% 29.97 in 10.0 mi NW 24.2 mph 34.5 mph N/A   Clear
3:53 AM 28.0 °F 13.0 °F 18.0 °F 66% 30.01 in 10.0 mi NNW 26.5 mph 40.3 mph N/A   Clear
4:53 AM 26.6 °F 12.4 °F 17.6 °F 69% 29.99 in 10.0 mi NNW 21.9 mph 34.5 mph N/A   Clear
5:53 AM 25.0 °F 10.9 °F 16.0 °F 69% 30.07 in 10.0 mi NNW 19.6 mph 26.5 mph N/A   Clear
6:53 AM 23.0 °F 12.4 °F 16.0 °F 74% 30.11 in 10.0 mi North 10.4 mph - N/A   Partly Cloudy
7:53 AM 24.1 °F 10.6 °F 15.1 °F 69% 30.14 in 10.0 mi NNW 17.3 mph 25.3 mph N/A   Clear
8:41 AM 24.8 °F 9.6 °F 14.0 °F 64% 30.11 in 10.0 mi NNW 23.0 mph 31.1 mph N/A   Mostly Cloudy
8:53 AM 25.0 °F 9.9 °F 14.0 °F 63% 30.18 in 10.0 mi NNW 23.0 mph 39.1 mph N/A   Overcast
9:40 AM 26.6 °F 9.8 °F 14.0 °F 59% 30.13 in 10.0 mi NNW 32.2 mph 43.7 mph N/A   Scattered Clouds
9:53 AM 26.1 °F 9.6 °F 14.0 °F 60% 30.22 in 10.0 mi NNW 29.9 mph 40.3 mph N/A   Scattered Clouds
10:31 AM 26.6 °F 11.1 °F 12.2 °F 55% 30.15 in 10.0 mi North 26.5 mph 42.6 mph N/A   Mostly Cloudy
10:53 AM 26.1 °F 9.6 °F 12.9 °F 58% 30.23 in 10.0 mi NNW 29.9 mph 35.7 mph N/A   Overcast
11:53 AM 25.0 °F 8.6 °F 10.9 °F 55% 30.25 in 10.0 mi North 27.6 mph 40.3 mph N/A   Overcast
12:53 PM 27.0 °F 11.9 °F 10.9 °F 51% 30.27 in 10.0 mi NNW 25.3 mph 38.0 mph N/A   Scattered Clouds
1:53 PM 27.0 °F 11.6 °F 10.0 °F 49% 30.29 in 10.0 mi North 26.5 mph 36.8 mph N/A   Clear
2:53 PM 26.1 °F 10.1 °F 9.0 °F 49% 30.32 in 10.0 mi North 27.6 mph 35.7 mph N/A   Clear
3:53 PM 23.0 °F 7.6 °F 9.0 °F 55% 30.37 in 10.0 mi North 21.9 mph 28.8 mph N/A   Clear
4:53 PM 21.0 °F 7.1 °F 9.0 °F 60% 30.40 in 10.0 mi NNW 16.1 mph - N/A   Clear
5:53 PM 19.9 °F 6.2 °F 10.0 °F 65% 30.40 in 10.0 mi NNW 15.0 mph - N/A   Clear
6:53 PM 19.0 °F 7.5 °F 10.0 °F 68% 30.43 in 10.0 mi NNW 10.4 mph - N/A   Clear
7:53 PM 18.0 °F 7.7 °F 9.0 °F 68% 30.44 in 10.0 mi NW 8.1 mph - N/A   Clear
8:53 PM 16.0 °F 5.3 °F 9.0 °F 74% 30.44 in 10.0 mi NW 8.1 mph - N/A   Clear
9:53 PM 15.1 °F 7.7 °F 9.0 °F 77% 30.44 in 10.0 mi WNW 4.6 mph - N/A   Clear
10:53 PM 14.0 °F 5.1 °F 8.1 °F 77% 30.46 in 10.0 mi West 5.8 mph - N/A   Clear
11:53 PM 14.0 °F 3.9 °F 8.1 °F 77% 30.45 in 10.0 mi NNW 6.9 mph - N/A   Clear